Погода в Игнатьевском

Россия / Республика Адыгея     44°50′52″N   40°27′02″E
темп.,
°C
ветер,
м/с
пор.,
м/с
влажн.,
%
обл.,
%
осадки,
мм/ч
давл.,
гПа
погр.,
м
29 июня, ср
ср2900:00+17всв35916 0.0 101297
03:00+16юв34889 0.0 101248
06:00+17в258719 0.0 1013139
09:00+24в35614 0.0 1013580
12:00+28всв564624 0.0 10121480
15:00+29всв56396 0.0 10112082
18:00+27всв5853100 0.0 1011401
21:00+21всв366988 0.0 1012100
30 июня, чт
чт3000:00+19вюв33783 0.0 101237
03:00+17в34840 0.0 101271
06:00+18в37810 0.0 1012201
09:00+25в56560 0.0 1012612
12:00+28всв56480 0.0 10111546
15:00+30всв544347 0.0 10102346
18:00+27в365696 0.0 1009571
21:00+23св236898 0.0 101061
1 июля, пт
пт100:00+21вюв227071 0.0 101030
03:00+20всв127472 0.0 101027
06:00+19ссв1373100 0.0 1011123
09:00+23всв345799 0.0 1011643
12:00+26св55487 0.0 10111284
15:00+26св66461 0.0 10111546
18:00+25св56511 0.0 10121472
21:00+19вюв33670 0.0 101333
2 июля, сб
сб200:00+17ююв33760 0.0 101337
03:00+15в11780 0.0 101411
06:00+17вюв24741 0.0 1015115
09:00+22всв56480 0.0 1015792
12:00+25св76410 0.0 10161713
15:00+25св763812 0.0 10152270
18:00+24св66420 0.0 10161278
21:00+17в39520 0.0 1018141
3 июля, вс
вс300:00+14вюв38550 0.0 1018131
03:00+14вюв35540 0.0 101880
06:00+14вюв36580 0.0 1018133
09:00+22всв46380 0.0 1018890
12:00+25всв55310 0.0 10171888
15:00+26св54300 0.0 10162231
18:00+25всв45360 0.0 10171813
21:00+18всв33530 0.0 101730